GW2746 Weather Reports


Display with metric or nautical units.
time (UTC)temp
F
wind
direction
speed
MPH
gust
MPH
rain 1hr
in
rain 24hr
in
rain mn
in
humidity
%
barometer
mb
20260508023631 60 40 1.0 1.0 0.00 0.00 0.00 39 1010.1
20260508023133 61 40 0.0 2.0 0.00 0.00 0.00 40 1010.0
20260508022618 61 40 1.0 2.0 0.00 0.00 0.00 39 1010.0
20260508022118 61 40 1.0 2.0 0.00 0.00 0.00 39 1009.9
20260508021643 62 40 1.0 2.0 0.00 0.00 0.00 39 1009.8
20260508021124 62 40 0.0 1.0 0.00 0.00 0.00 39 1009.8
20260508020627 63 40 0.0 2.0 0.00 0.00 0.00 38 1009.7
20260508020125 63 40 0.0 3.0 0.00 0.00 0.00 37 1009.6
20260508015630 64 40 1.0 3.0 0.00 0.00 0.00 36 1009.6
20260508015115 64 40 0.0 2.0 0.00 0.00 0.00 36 1009.6
20260508014622 64 40 1.0 2.0 0.00 0.00 0.00 34 1009.7
20260508014119 65 40 1.0 2.0 0.00 0.00 0.00 34 1009.6
20260508013624 65 40 1.0 2.0 0.00 0.00 0.00 34 1009.6
20260508013124 66 40 0.0 2.0 0.00 0.00 0.00 33 1009.5
20260508012631 66 40 0.0 2.0 0.00 0.00 0.00 33 1009.5
20260508012129 67 32 0.0 2.0 0.00 0.00 0.00 32 1009.4
20260508011634 67 32 1.0 2.0 0.00 0.00 0.00 32 1009.3
20260508011152 68 32 0.0 4.0 0.00 0.00 0.00 31 1009.3
20260508010636 68 32 1.0 4.0 0.00 0.00 0.00 30 1009.2
20260508010135 68 19 0.0 4.0 0.00 0.00 0.00 30 1009.1
20260508005622 68 70 0.0 3.0 0.00 0.00 0.00 29 1009.1
20260508005120 69 71 1.0 4.0 0.00 0.00 0.00 29 1009.0
20260508004625 69 38 2.0 4.0 0.00 0.00 0.00 28 1009.0
20260508004122 69 278 1.0 4.0 0.00 0.00 0.00 29 1009.0
20260508003628 69 268 1.0 5.0 0.00 0.00 0.00 28 1008.9
20260508003127 69 54 2.0 8.0 0.00 0.00 0.00 28 1008.8
20260508002631 70 316 5.0 8.0 0.00 0.00 0.00 29 1008.8
20260508002148 70 267 6.0 8.0 0.00 0.00 0.00 28 1008.7
20260508001613 71 38 5.0 8.0 0.00 0.00 0.00 29 1008.7
20260508001154 71 271 4.0 8.0 0.00 0.00 0.00 28 1008.7
20260508000619 72 275 5.0 7.0 0.00 0.00 0.00 28 1008.7
20260508000121 72 262 2.0 8.0 0.00 0.00 0.00 29 1008.7
20260507235628 72 337 3.0 8.0 0.00 0.00 0.00 29 1008.7
20260507235127 72 89 2.0 6.0 0.00 0.00 0.00 28 1008.7
20260507234631 72 293 3.0 6.0 0.00 0.00 0.00 28 1008.7
20260507234150 72 335 2.0 8.0 0.00 0.00 0.00 28 1008.8
20260507233632 72 333 4.0 8.0 0.00 0.00 0.00 28 1008.8
20260507233151 72 4 1.0 7.0 0.00 0.00 0.00 29 1008.7
20260507232635 72 303 1.0 8.0 0.00 0.00 0.00 28 1008.7
20260507232130 72 265 5.0 8.0 0.00 0.00 0.00 29 1008.8
20260507231654 72 255 3.0 8.0 0.00 0.00 0.00 28 1008.7
20260507231151 72 254 4.0 9.0 0.00 0.00 0.00 29 1008.7
20260507230631 72 4 3.0 9.0 0.00 0.00 0.00 29 1008.6
20260507230154 73 273 3.0 8.0 0.00 0.00 0.00 27 1008.7
20260507225641 73 58 2.0 8.0 0.00 0.00 0.00 28 1008.6
20260507225118 73 246 3.0 8.0 0.00 0.00 0.00 28 1008.7
20260507224622 73 253 2.0 8.0 0.00 0.00 0.00 27 1008.6
20260507224139 73 303 4.0 7.0 0.00 0.00 0.00 28 1008.7
20260507223622 73 351 4.0 8.0 0.00 0.00 0.00 28 1008.7
20260507223120 72 350 3.0 10.0 0.00 0.00 0.00 28 1008.7
20260507222625 72 19 6.0 10.0 0.00 0.00 0.00 28 1008.7
20260507222125 72 241 5.0 10.0 0.00 0.00 0.00 27 1008.8
20260507221633 72 339 2.0 11.0 0.00 0.00 0.00 29 1008.7
20260507221155 72 254 4.0 11.0 0.00 0.00 0.00 29 1008.7
20260507220617 73 37 2.0 5.0 0.00 0.00 0.00 28 1008.7
20260507220115 73 71 3.0 6.0 0.00 0.00 0.00 29 1008.8
20260507215621 73 289 2.0 7.0 0.00 0.00 0.00 30 1008.8
20260507215124 72 307 4.0 10.0 0.00 0.00 0.00 29 1008.8
20260507214631 72 30 6.0 10.0 0.00 0.00 0.00 28 1008.9
20260507214128 72 262 4.0 11.0 0.00 0.00 0.00 28 1008.9
20260507213632 72 354 5.0 11.0 0.00 0.00 0.00 29 1009.0
20260507213129 72 41 4.0 10.0 0.00 0.00 0.00 29 1009.0
20260507212652 72 328 5.0 10.0 0.00 0.00 0.00 28 1009.0
20260507212130 72 274 5.0 10.0 0.00 0.00 0.00 27 1009.0
20260507211654 73 250 3.0 10.0 0.00 0.00 0.00 26 1009.0
20260507211118 73 202 3.0 10.0 0.00 0.00 0.00 28 1009.1
20260507210642 73 265 3.0 7.0 0.00 0.00 0.00 28 1009.0
20260507210122 72 339 5.0 8.0 0.00 0.00 0.00 29 1009.1
20260507205647 72 300 3.0 10.0 0.00 0.00 0.00 30 1009.2
20260507205145 72 281 7.0 10.0 0.00 0.00 0.00 29 1009.1
20260507204630 72 269 5.0 10.0 0.00 0.00 0.00 31 1009.1
20260507204130 72 335 3.0 10.0 0.00 0.00 0.00 29 1009.3
20260507203634 72 274 5.0 8.0 0.00 0.00 0.00 32 1009.3
20260507203133 72 322 3.0 10.0 0.00 0.00 0.00 31 1009.4
20260507202656 72 277 8.0 10.0 0.00 0.00 0.00 30 1009.4
20260507202115 71 301 3.0 14.0 0.00 0.00 0.00 32 1009.4
20260507201622 71 255 4.0 14.0 0.00 0.00 0.00 29 1009.5
20260507201124 72 318 4.0 10.0 0.00 0.00 0.00 31 1009.5
20260507200628 71 244 4.0 10.0 0.00 0.00 0.00 33 1009.6
20260507200132 71 256 4.0 11.0 0.00 0.00 0.00 32 1009.6
20260507195657 71 258 7.0 11.0 0.00 0.00 0.00 29 1009.6
20260507195133 71 280 7.0 10.0 0.00 0.00 0.00 30 1009.6
20260507194620 70 224 4.0 8.0 0.00 0.00 0.00 36 1009.5
20260507194118 70 263 6.0 9.0 0.00 0.00 0.00 33 1009.6
20260507193625 71 262 5.0 9.0 0.00 0.00 0.00 34 1009.6
20260507193124 71 350 5.0 12.0 0.00 0.00 0.00 34 1009.6
20260507192626 71 239 5.0 11.0 0.00 0.00 0.00 36 1009.6
20260507192124 71 229 4.0 12.0 0.00 0.00 0.00 36 1009.6
20260507191627 71 276 5.0 11.0 0.00 0.00 0.00 36 1009.7
20260507191125 71 269 4.0 10.0 0.00 0.00 0.00 36 1009.6
20260507190650 70 316 5.0 10.0 0.00 0.00 0.00 37 1009.7
20260507190125 70 227 6.0 11.0 0.00 0.00 0.00 36 1009.8
20260507185653 70 296 5.0 11.0 0.00 0.00 0.00 36 1009.7
20260507185128 70 239 3.0 11.0 0.00 0.00 0.00 36 1009.7
20260507184631 70 156 8.0 11.0 0.00 0.00 0.00 37 1009.9
20260507184131 69 283 4.0 12.0 0.00 0.00 0.00 37 1009.9
20260507183634 69 216 6.0 12.0 0.00 0.00 0.00 36 1009.9
20260507183133 69 241 6.0 11.0 0.00 0.00 0.00 37 1010.0
20260507182619 68 233 4.0 12.0 0.00 0.00 0.00 38 1010.2
20260507182117 69 258 5.0 13.0 0.00 0.00 0.00 37 1010.3
20260507181622 69 216 3.0 13.0 0.00 0.00 0.00 37 1010.3
20260507181125 68 223 4.0 13.0 0.00 0.00 0.00 37 1010.3
20260507180631 68 250 7.0 15.0 0.00 0.00 0.00 38 1010.4
20260507180135 68 181 7.0 15.0 0.00 0.00 0.00 38 1010.4
20260507175620 68 292 5.0 14.0 0.00 0.00 0.00 37 1010.4
20260507175122 68 306 5.0 14.0 0.00 0.00 0.00 38 1010.6
20260507174628 68 223 6.0 11.0 0.00 0.00 0.00 38 1010.6
20260507174126 67 219 2.0 8.0 0.00 0.00 0.00 38 1010.6
20260507173631 67 230 4.0 8.0 0.00 0.00 0.00 39 1010.8
20260507173130 67 249 1.0 9.0 0.00 0.00 0.00 40 1010.8
20260507172618 66 333 4.0 9.0 0.00 0.00 0.00 40 1010.8
20260507172129 66 266 4.0 9.0 0.00 0.00 0.00 39 1010.9
20260507171619 66 277 4.0 12.0 0.00 0.00 0.00 41 1011.1
20260507171137 65 259 5.0 12.0 0.00 0.00 0.00 40 1011.1
20260507170626 65 301 7.0 12.0 0.00 0.00 0.00 41 1011.2
20260507170126 65 287 6.0 15.0 0.00 0.00 0.00 40 1011.2
20260507165650 65 253 4.0 15.0 0.00 0.00 0.00 39 1011.3
20260507165126 65 260 6.0 12.0 0.00 0.00 0.00 40 1011.3
20260507164630 64 287 4.0 9.0 0.00 0.00 0.00 41 1011.3
20260507164155 64 258 1.0 10.0 0.00 0.00 0.00 43 1011.4
20260507163619 64 267 5.0 10.0 0.00 0.00 0.00 43 1011.5
20260507163136 64 231 5.0 9.0 0.00 0.00 0.00 46 1011.6
20260507162624 64 108 5.0 7.0 0.00 0.00 0.00 45 1011.7
20260507162127 63 240 3.0 9.0 0.00 0.00 0.00 47 1011.7
20260507161632 62 231 2.0 9.0 0.00 0.00 0.00 48 1011.8
20260507161129 62 303 5.0 9.0 0.00 0.00 0.00 48 1011.8
20260507160656 61 248 4.0 10.0 0.00 0.00 0.00 50 1011.9
20260507160117 62 293 6.0 10.0 0.00 0.00 0.00 49 1012.1
20260507155624 62 232 3.0 9.0 0.00 0.00 0.00 49 1012.1
20260507155123 61 219 2.0 5.0 0.00 0.00 0.00 53 1012.2
20260507154632 60 225 2.0 6.0 0.00 0.00 0.00 53 1012.3
20260507154130 60 222 3.0 6.0 0.00 0.00 0.00 52 1012.3
20260507153633 60 218 2.0 8.0 0.00 0.00 0.00 54 1012.3
20260507153155 60 266 4.0 9.0 0.00 0.00 0.00 52 1012.4
20260507152616 59 204 4.0 9.0 0.00 0.00 0.00 55 1012.4
20260507152118 59 189 2.0 8.0 0.00 0.00 0.00 55 1012.4
20260507151623 58 233 5.0 8.0 0.00 0.00 0.00 56 1012.5
20260507151124 58 285 3.0 10.0 0.00 0.00 0.00 57 1012.6
20260507150630 58 187 7.0 10.0 0.00 0.00 0.00 57 1012.7
20260507150129 58 289 5.0 10.0 0.00 0.00 0.00 57 1012.7
20260507145633 57 247 4.0 10.0 0.00 0.00 0.00 60 1012.7
20260507145131 57 283 3.0 9.0 0.00 0.00 0.00 60 1012.7
20260507144635 56 212 3.0 9.0 0.00 0.00 0.00 60 1012.7
20260507144135 56 237 4.0 9.0 0.00 0.00 0.00 61 1012.7
20260507143619 56 258 5.0 11.0 0.00 0.00 0.00 63 1012.8
20260507143117 55 261 3.0 10.0 0.00 0.00 0.00 63 1012.8
20260507142625 55 255 3.0 12.0 0.00 0.00 0.00 63 1012.8
20260507142125 55 227 5.0 12.0 0.00 0.00 0.00 63 1012.9
20260507141649 55 223 2.0 8.0 0.00 0.00 0.00 64 1012.9
20260507141146 54 295 3.0 10.0 0.00 0.00 0.00 64 1013.0
20260507140624 54 272 5.0 12.0 0.00 0.00 0.00 65 1013.0
20260507140124 54 271 6.0 12.0 0.00 0.00 0.00 64 1013.1
20260507135629 53 277 5.0 10.0 0.00 0.00 0.00 65 1013.1
20260507135128 53 237 7.0 10.0 0.00 0.00 0.00 66 1013.1
20260507134654 53 264 5.0 11.0 0.00 0.00 0.00 67 1013.1
20260507134124 52 239 6.0 10.0 0.00 0.00 0.00 68 1013.2
20260507133646 52 271 6.0 9.0 0.00 0.00 0.00 69 1013.2
20260507133124 52 264 4.0 9.0 0.00 0.00 0.00 69 1013.1
20260507132648 51 193 5.0 8.0 0.00 0.00 0.00 71 1013.2
20260507132124 51 250 4.0 9.0 0.00 0.00 0.00 71 1013.1
20260507131629 50 195 2.0 10.0 0.00 0.00 0.00 72 1013.2
20260507131147 50 327 2.0 10.0 0.00 0.00 0.00 73 1013.3
20260507130633 50 307 5.0 10.0 0.00 0.00 0.00 74 1013.3
20260507130119 49 265 3.0 9.0 0.00 0.00 0.00 74 1013.3
20260507125624 49 262 7.0 9.0 0.00 0.00 0.00 75 1013.5
20260507125125 49 268 4.0 12.0 0.00 0.00 0.00 75 1013.6
20260507124649 48 266 4.0 12.0 0.00 0.00 0.00 76 1013.5
20260507124126 48 205 4.0 10.0 0.00 0.00 0.00 77 1013.5
20260507123629 47 281 6.0 10.0 0.00 0.00 0.00 77 1013.4
20260507123127 47 241 6.0 8.0 0.00 0.00 0.00 78 1013.5
20260507122633 47 246 6.0 8.0 0.00 0.00 0.00 78 1013.4
20260507122150 47 211 4.0 8.0 0.00 0.00 0.00 78 1013.5
20260507121632 46 230 2.0 6.0 0.00 0.00 0.00 79 1013.5
20260507121132 46 252 2.0 5.0 0.00 0.00 0.00 79 1013.6
20260507120635 46 282 2.0 5.0 0.00 0.00 0.00 79 1013.6
20260507120134 46 265 3.0 5.0 0.00 0.00 0.00 79 1013.5
20260507115617 46 291 4.0 6.0 0.00 0.00 0.00 79 1013.5
20260507115118 46 254 3.0 6.0 0.00 0.00 0.00 79 1013.5
20260507114625 46 222 2.0 5.0 0.00 0.00 0.00 79 1013.5
20260507114123 46 249 4.0 7.0 0.00 0.00 0.00 78 1013.5
20260507113629 46 277 5.0 7.0 0.00 0.00 0.00 79 1013.6
20260507113150 46 259 2.0 6.0 0.00 0.00 0.00 78 1013.6
20260507112633 46 261 2.0 6.0 0.00 0.00 0.00 78 1013.6
20260507112138 46 269 3.0 6.0 0.00 0.00 0.00 78 1013.6
20260507111623 46 235 3.0 8.0 0.00 0.00 0.00 78 1013.6
20260507111124 46 287 3.0 8.0 0.00 0.00 0.00 78 1013.7
20260507110631 46 248 4.0 6.0 0.00 0.00 0.00 78 1013.7
20260507110152 46 238 2.0 5.0 0.00 0.00 0.00 78 1013.7
20260507105635 46 223 2.0 7.0 0.00 0.00 0.00 77 1013.6
20260507105132 46 262 3.0 7.0 0.00 0.00 0.00 77 1013.5
20260507104624 46 250 4.0 7.0 0.00 0.00 0.00 77 1013.6
20260507104126 46 235 3.0 7.0 0.00 0.00 0.00 77 1013.6
20260507103627 46 254 2.0 8.0 0.00 0.00 0.00 77 1013.6
20260507103142 46 264 2.0 8.0 0.00 0.00 0.00 78 1013.5
20260507102628 46 269 1.0 5.0 0.00 0.00 0.00 77 1013.5
20260507102129 46 270 0.0 5.0 0.00 0.00 0.00 77 1013.4
20260507101621 46 272 2.0 6.0 0.00 0.00 0.00 77 1013.5
20260507101119 46 260 1.0 6.0 0.00 0.00 0.00 77 1013.5
20260507100627 46 272 2.0 6.0 0.00 0.00 0.00 76 1013.5
20260507100145 46 241 1.0 8.0 0.00 0.00 0.00 76 1013.6
20260507095633 46 227 2.0 8.0 0.00 0.00 0.00 76 1013.7
20260507095135 46 216 2.0 5.0 0.00 0.00 0.00 76 1013.7
20260507094618 46 243 1.0 5.0 0.00 0.00 0.00 75 1013.7
20260507094156 47 222 1.0 7.0 0.00 0.00 0.00 75 1013.8
20260507093619 47 226 2.0 7.0 0.00 0.00 0.00 75 1013.8
20260507093117 47 266 3.0 5.0 0.00 0.00 0.00 74 1013.9
20260507092626 47 216 1.0 7.0 0.00 0.00 0.00 74 1013.9
20260507092127 47 231 1.0 7.0 0.00 0.00 0.00 74 1013.9
20260507091631 47 204 2.0 8.0 0.00 0.00 0.00 73 1014.0
20260507091132 47 240 4.0 8.0 0.00 0.00 0.00 73 1014.0
20260507090654 47 258 1.0 6.0 0.00 0.00 0.00 73 1014.1
20260507090152 47 277 2.0 6.0 0.00 0.00 0.00 73 1014.1
20260507085619 47 260 2.0 5.0 0.00 0.00 0.00 73 1014.1
20260507085141 47 246 2.0 5.0 0.00 0.00 0.00 72 1014.2
20260507084626 46 229 3.0 5.0 0.00 0.00 0.00 72 1014.3
20260507084145 46 258 2.0 5.0 0.00 0.00 0.00 71 1014.4
20260507083628 46 254 3.0 5.0 0.00 0.00 0.00 71 1014.4
20260507083126 46 278 2.0 5.0 0.00 0.00 0.00 70 1014.5
20260507082631 46 265 2.0 5.0 0.00 0.00 0.00 70 1014.5
20260507082128 46 273 2.0 5.0 0.00 0.00 0.00 70 1014.5
20260507081633 45 267 2.0 4.0 0.00 0.00 0.00 69 1014.6
20260507081133 45 257 1.0 6.0 0.00 0.00 0.00 69 1014.7
20260507080637 45 245 2.0 6.0 0.00 0.00 0.00 69 1014.7
20260507080121 45 295 1.0 2.0 0.00 0.00 0.00 68 1014.9
20260507075630 45 298 1.0 2.0 0.00 0.00 0.00 67 1014.8
20260507075148 44 298 1.0 2.0 0.00 0.00 0.00 67 1014.9
20260507074634 44 305 0.0 2.0 0.00 0.00 0.00 66 1014.9
20260507074156 44 305 0.0 2.0 0.00 0.00 0.00 65 1015.0
20260507073635 44 305 0.0 2.0 0.00 0.00 0.00 65 1015.0
20260507073115 44 305 0.0 2.0 0.00 0.00 0.00 65 1015.1
20260507072627 43 306 1.0 1.0 0.00 0.00 0.00 65 1015.3
20260507072123 43 311 0.0 0.0 0.00 0.00 0.00 64 1015.3
20260507071630 43 311 0.0 0.0 0.00 0.00 0.00 63 1015.3
20260507071126 44 311 0.0 0.0 0.00 0.00 0.00 62 1015.4
20260507070633 44 311 0.0 0.0 0.00 0.00 0.00 61 1015.4
20260507070132 44 311 0.0 0.0 0.00 0.00 0.00 61 1015.5
20260507065654 44 311 0.0 0.0 0.00 0.00 0.00 61 1015.6
20260507065140 44 311 0.0 1.0 0.00 0.00 0.00 61 1015.7
20260507064622 44 311 0.0 1.0 0.00 0.00 0.00 61 1015.8
20260507064120 44 311 0.0 1.0 0.00 0.00 0.00 61 1015.8
20260507063625 44 311 0.0 0.0 0.00 0.00 0.00 61 1015.7
20260507063141 44 311 0.0 0.0 0.00 0.00 0.00 61 1015.8
20260507062629 44 311 0.0 0.0 0.00 0.00 0.00 60 1015.8
20260507062128 44 311 0.0 0.0 0.00 0.00 0.00 60 1015.8
20260507061651 45 311 0.0 0.0 0.00 0.00 0.00 60 1015.9
20260507061128 45 311 0.0 1.0 0.00 0.00 0.00 59 1016.0
20260507060636 45 311 0.0 1.0 0.00 0.00 0.00 59 1016.0
20260507060118 45 311 0.0 0.0 0.00 0.00 0.00 59 1016.0
20260507055624 45 311 0.0 1.0 0.00 0.00 0.00 60 1016.1
20260507055126 45 311 0.0 1.0 0.00 0.00 0.00 59 1016.1
20260507054629 45 311 0.0 1.0 0.00 0.00 0.00 59 1016.1
20260507054126 45 311 0.0 1.0 0.00 0.00 0.00 60 1016.1
20260507053634 45 311 0.0 0.0 0.00 0.00 0.00 59 1016.1
20260507053135 45 311 0.0 0.0 0.00 0.00 0.00 59 1016.0
20260507052622 45 311 0.0 0.0 0.00 0.00 0.00 58 1016.1
20260507052125 45 311 0.0 0.0 0.00 0.00 0.00 60 1016.3
20260507051628 45 311 0.0 0.0 0.00 0.00 0.00 61 1016.3
20260507051148 45 311 0.0 0.0 0.00 0.00 0.00 59 1016.2
20260507050628 45 311 0.0 0.0 0.00 0.00 0.00 56 1016.2
20260507050133 46 311 0.0 0.0 0.00 0.00 0.00 57 1016.1
20260507045628 46 311 0.0 0.0 0.00 0.00 0.00 57 1016.1
20260507045128 46 311 0.0 0.0 0.00 0.00 0.00 56 1016.2
20260507044635 46 311 0.0 0.0 0.00 0.00 0.00 55 1016.2
20260507044136 46 311 0.0 0.0 0.00 0.00 0.00 55 1016.2
20260507043623 46 311 0.0 0.0 0.00 0.00 0.00 55 1016.3
20260507043122 46 311 0.0 0.0 0.00 0.00 0.00 55 1016.3
20260507042627 46 311 0.0 1.0 0.00 0.00 0.00 55 1016.4
20260507042127 46 311 0.0 1.0 0.00 0.00 0.00 56 1016.4
20260507041629 46 311 0.0 0.0 0.00 0.00 0.00 56 1016.5
20260507041127 46 311 0.0 0.0 0.00 0.00 0.00 56 1016.5
20260507040632 46 311 0.0 1.0 0.00 0.00 0.00 57 1016.5
20260507040132 46 311 0.0 1.0 0.00 0.00 0.00 57 1016.5
20260507035656 47 311 0.0 0.0 0.00 0.00 0.00 56 1016.6
20260507035133 47 311 0.0 2.0 0.00 0.00 0.00 56 1016.7
20260507034635 47 311 0.0 2.0 0.00 0.00 0.00 55 1016.7
20260507034133 48 311 0.0 0.0 0.00 0.00 0.00 52 1016.7
20260507033621 48 311 0.0 0.0 0.00 0.00 0.00 51 1016.7
20260507033118 48 311 0.0 0.0 0.00 0.00 0.00 50 1016.7
20260507032621 48 311 0.0 0.0 0.00 0.00 0.00 50 1016.7
20260507032143 48 311 0.0 0.0 0.00 0.00 0.00 50 1016.7
20260507031626 48 311 0.0 0.0 0.00 0.00 0.00 50 1016.7
20260507031126 48 311 0.0 1.0 0.00 0.00 0.00 50 1016.7
20260507030629 48 311 0.0 1.0 0.00 0.00 0.00 50 1016.7
20260507030132 48 311 0.0 0.0 0.00 0.00 0.00 51 1016.7
20260507025656 49 311 0.0 0.0 0.00 0.00 0.00 51 1016.7
20260507025133 49 311 0.0 0.0 0.00 0.00 0.00 50 1016.7
20260507024625 49 311 0.0 0.0 0.00 0.00 0.00 50 1016.7
20260507024123 49 311 0.0 0.0 0.00 0.00 0.00 49 1016.8